Wind_Speed
20 21 22 22 22 22 22 22 21 21 21 21 22 22 23 23 24 24 24 25 25 25 26 27 27 28 29 30 31 31 31 31 31 31 31 31 30 29 28 28 27 26 26 26 26 26 27 27 28 28 27 27 27 27 27 27 26 26 25 25 24 23 23 23 23 22 22 20 19
20 21 22 22 23 23 23 23 23 22 22 23 23 24 24 25 25 26 26 26 26 26 27 28 28 29 30 30 31 31 31 32 32 31 31 30 29 28 28 27 26 26 25 25 25 25 25 25 26 26 26 25 25 26 27 27 27 26 26 26 26 25 25 24 24 24 23 22 21
21 22 22 23 23 24 24 23 23 23 24 24 24 25 26 26 27 27 27 27 27 27 28 28 29 29 29 30 31 31 31 32 32 32 31 30 28 27 27 26 26 26 25 25 25 25 25 24 24 25 25 24 25 25 26 26 26 26 27 27 26 26 25 25 24 24 24 23 22
21 22 23 23 24 24 24 24 24 25 25 25 26 26 27 27 28 28 29 29 29 28 28 28 29 29 30 30 31 31 31 32 31 31 30 29 28 27 26 26 25 25 25 25 25 25 25 25 24 24 24 25 25 25 25 25 25 26 26 26 26 26 26 26 25 24 24 23 23
22 22 23 23 24 24 25 25 25 26 26 27 27 27 28 28 29 29 29 29 29 29 29 29 30 30 30 30 31 31 31 31 31 30 29 28 27 26 26 26 25 25 25 26 26 26 26 25 24 24 23 24 24 24 24 25 25 26 26 26 26 26 26 26 25 25 25 24 24
23 23 23 23 24 24 25 25 26 26 27 28 28 29 29 30 30 29 29 29 30 30 30 30 30 31 31 31 31 31 31 30 30 29 28 27 27 26 26 26 26 25 25 25 26 26 26 26 25 25 24 24 23 23 23 24 24 25 25 25 25 25 25 25 26 25 25 25 25
23 23 23 24 24 24 25 26 27 28 28 29 29 30 31 31 31 30 30 30 30 31 31 31 31 31 31 31 31 31 30 30 29 28 28 27 27 27 26 26 26 26 26 26 26 26 26 26 25 24 25 25 24 23 23 23 23 24 24 24 24 24 24 25 25 26 26 26 26
24 24 25 25 25 25 26 27 28 29 30 30 31 31 31 31 31 31 31 31 31 31 32 32 32 32 32 32 32 31 30 30 29 28 28 27 27 27 27 26 26 27 26 26 26 26 26 25 25 25 25 24 23 24 24 24 24 25 25 25 25 24 24 24 25 25 26 26 27
25 25 26 26 26 26 26 27 28 29 30 31 31 31 31 31 30 30 30 31 32 32 33 33 33 33 33 33 32 31 30 29 29 28 28 27 27 27 27 27 27 28 28 28 27 27 26 26 25 26 26 25 25 26 26 25 25 25 26 25 25 25 25 25 25 25 26 27 27
25 26 26 26 26 27 27 27 28 28 29 30 31 32 32 32 31 31 31 32 33 34 34 34 34 34 34 33 32 32 31 30 29 28 28 28 27 27 28 28 28 29 29 29 28 28 27 26 26 26 26 26 26 26 26 26 26 25 25 24 24 25 25 25 25 26 26 27 27
26 27 27 28 28 29 29 29 29 29 29 30 32 33 35 35 35 34 34 34 34 35 35 35 35 34 34 33 33 32 31 31 30 29 29 29 29 29 29 30 30 30 31 31 30 29 27 26 26 26 26 25 25 25 25 25 25 25 25 25 25 25 26 26 26 26 27 27 28
27 28 29 30 30 31 31 30 30 30 30 30 31 33 35 36 36 36 35 35 35 35 35 35 34 34 34 33 33 33 33 32 32 31 31 31 31 31 31 31 32 32 32 32 31 30 28 27 26 26 26 26 26 25 25 25 25 25 26 26 26 26 26 26 26 27 27 28 28
28 29 29 30 30 31 31 30 30 30 30 30 31 31 33 34 34 34 34 34 34 34 34 34 34 33 33 33 33 34 34 34 33 33 32 32 32 32 32 32 33 33 33 33 32 30 29 28 28 27 27 27 27 26 25 25 26 26 26 26 26 26 26 26 26 27 27 28 29
28 28 29 29 29 29 29 29 29 29 28 29 29 30 30 31 32 32 33 33 33 33 33 34 33 33 33 33 34 34 35 35 34 34 34 34 33 33 33 33 33 33 33 32 32 31 30 29 29 28 28 28 28 27 27 27 27 27 26 26 26 27 27 26 26 26 27 28 29
27 27 27 27 27 27 27 27 27 26 27 27 28 29 30 30 31 31 32 32 33 33 34 34 34 34 34 35 35 35 35 35 35 35 35 34 34 34 34 34 34 33 33 32 32 32 31 31 30 30 30 30 30 30 29 28 28 27 27 27 27 27 27 27 27 27 27 28 28
26 26 26 26 26 26 26 26 26 26 27 28 29 30 31 31 32 32 32 33 34 34 34 35 35 35 36 36 36 36 36 36 36 36 35 35 35 35 35 35 34 34 34 33 33 32 32 32 31 31 31 32 32 31 31 30 30 29 29 28 28 28 28 28 27 27 27 28 28
26 26 26 26 26 26 27 27 28 29 30 31 32 32 33 33 33 33 34 34 35 35 35 36 36 37 37 37 37 37 37 37 36 36 36 36 36 36 36 36 36 35 35 34 34 34 34 34 33 33 33 33 32 32 31 31 30 30 29 29 29 29 28 28 27 27 28 28 29
26 27 27 27 28 28 29 30 30 31 32 33 33 34 34 34 35 35 35 36 36 36 36 37 37 37 37 37 37 37 37 37 37 37 37 37 37 37 37 37 37 36 36 35 35 35 35 35 35 35 34 34 33 32 31 31 30 30 30 30 30 29 29 29 28 28 27 28 29
27 28 28 29 29 30 31 31 32 33 33 34 35 35 35 36 36 36 37 37 37 37 37 37 37 37 37 37 37 37 37 37 37 37 38 38 38 38 38 38 37 37 37 36 36 36 36 36 35 35 34 34 33 33 32 31 31 30 30 30 30 30 30 30 30 29 28 28 29
28 29 29 30 31 32 32 33 34 34 35 35 36 36 36 37 37 37 37 37 37 37 36 36 37 37 37 37 37 37 36 36 36 37 37 38 38 38 38 38 38 38 37 37 37 36 36 36 35 35 34 34 34 33 33 32 32 31 31 31 31 31 31 31 31 30 30 30 30
28 29 30 31 32 33 34 34 35 36 36 36 36 37 37 37 37 37 37 37 37 37 36 36 36 36 36 36 36 36 36 36 36 36 37 37 38 38 38 38 38 37 37 37 36 36 36 36 36 35 35 35 35 34 34 33 33 32 32 32 31 32 32 31 32 32 31 31 31
29 30 31 32 33 34 35 35 36 36 36 36 37 37 37 37 37 37 37 37 37 37 36 36 36 36 36 36 36 36 36 36 36 36 36 37 37 37 37 37 37 37 37 37 37 37 37 37 37 37 36 35 35 35 35 34 33 32 32 32 32 32 32 32 32 32 32 32 32
30 31 32 33 33 34 35 35 36 36 36 36 36 37 37 37 37 37 37 37 37 37 37 37 36 36 36 36 36 37 37 37 37 37 37 37 37 37 38 38 37 37 37 37 37 37 37 37 37 37 36 34 34 33 33 33 33 32 31 32 32 33 32 32 32 32 32 32 33
30 31 32 33 33 34 35 35 35 35 35 36 36 36 36 37 37 38 38 37 37 37 38 37 37 37 37 37 37 37 37 38 38 38 39 39 39 39 39 38 38 38 38 38 38 37 36 35 35 35 34 33 32 32 32 32 31 31 31 32 33 32 32 32 32 31 31 32 32
31 32 32 33 33 34 34 34 34 35 35 35 36 36 36 37 38 38 38 38 38 38 38 38 39 38 38 38 38 38 38 38 38 39 39 40 40 40 39 38 38 38 37 37 38 38 38 36 35 34 33 33 32 32 31 31 30 31 32 32 32 32 32 33 33 33 33 33 33
31 32 32 33 33 34 34 34 34 35 35 35 36 36 37 37 38 38 38 39 39 39 39 38 39 39 38 38 39 39 38 38 38 38 38 38 38 39 39 39 38 37 37 36 37 38 38 38 37 36 35 33 33 32 31 31 31 31 31 32 32 32 31 33 34 34 33 33 33
31 31 32 33 33 34 34 34 35 35 36 36 37 37 37 38 38 38 39 39 39 40 39 38 38 38 38 38 38 37 37 37 37 37 37 36 37 37 37 37 37 36 36 37 38 38 38 39 38 38 37 34 32 32 32 33 33 32 32 32 32 32 32 33 34 34 34 33 33
31 32 32 33 34 34 35 35 35 36 36 37 37 37 38 38 38 38 38 39 39 39 38 37 37 35 34 35 35 35 36 36 35 35 34 34 35 37 37 37 36 35 36 37 37 37 38 38 38 38 37 35 33 33 33 33 32 33 33 33 33 33 34 33 33 34 34 34 34
31 32 33 33 34 35 36 36 36 36 37 37 37 38 38 38 38 38 38 38 38 37 36 36 35 34 33 34 35 35 36 36 36 35 34 34 35 36 37 37 38 38 38 38 38 38 38 39 39 38 38 37 34 32 32 32 32 33 33 32 32 32 33 34 33 33 33 33 33
32 32 33 34 35 36 36 36 37 37 37 37 37 37 38 38 38 38 38 38 37 37 36 35 34 34 35 36 36 36 36 36 36 36 35 35 37 39 39 39 38 38 38 39 39 39 39 39 39 39 39 38 36 34 32 33 33 33 33 32 32 33 34 34 34 33 33 33 32
32 32 33 34 35 36 36 37 37 37 37 37 37 37 37 38 38 38 37 37 37 36 36 36 36 36 37 37 36 36 37 38 37 37 37 37 38 39 40 40 39 39 40 40 39 40 40 40 40 40 40 39 37 35 34 33 34 34 34 34 34 35 35 34 33 33 33 33 32
32 33 34 34 35 36 37 37 37 37 37 37 37 37 37 37 37 37 37 36 36 36 36 36 37 37 37 38 37 37 38 38 38 38 38 38 39 39 40 40 40 41 41 41 41 41 41 41 41 41 41 41 39 37 36 36 35 35 36 36 37 37 37 35 34 33 33 33 33
33 33 34 34 35 36 37 37 37 37 37 37 37 37 37 37 37 37 37 36 35 35 35 36 36 37 37 37 38 38 38 38 39 39 39 40 39 39 40 41 41 41 41 41 41 41 41 41 41 41 41 41 40 39 38 38 36 36 36 36 37 38 38 37 36 35 35 34 34
33 33 34 35 35 36 36 37 37 37 36 37 37 37 36 36 36 37 37 36 35 35 35 36 35 36 37 37 37 38 38 39 39 39 39 40 40 39 40 40 40 40 40 40 40 40 40 40 40 40 40 40 39 38 37 38 37 36 36 37 37 37 37 37 37 37 36 36 35
33 33 34 35 36 36 36 37 37 37 36 36 37 37 37 36 36 36 36 36 36 36 36 35 35 36 36 36 36 37 38 38 39 40 40 39 39 39 40 41 41 42 41 41 40 40 40 40 40 40 40 39 38 37 36 36 37 37 37 37 37 38 38 38 37 37 37 36 36
33 33 34 35 36 36 36 36 36 36 36 36 36 37 37 37 36 36 36 36 36 36 36 36 35 35 36 36 37 37 37 38 39 40 40 39 39 39 40 41 42 43 43 42 42 41 41 41 41 41 40 38 37 36 35 34 34 34 35 36 36 37 38 39 38 37 37 36 36
33 33 34 35 35 36 36 36 36 35 35 36 36 36 36 37 37 36 36 35 35 35 36 35 35 35 36 38 38 38 39 40 40 40 41 41 40 40 40 41 42 43 43 43 42 42 42 42 41 41 40 38 36 34 33 32 32 32 33 34 35 36 37 37 37 37 37 37 37
33 33 34 34 35 36 36 35 35 34 35 35 36 36 36 36 36 36 36 35 34 35 36 36 36 36 37 39 39 40 41 41 41 41 42 42 42 41 41 41 43 43 43 43 42 42 42 41 41 41 39 37 36 34 33 31 30 30 31 31 32 34 35 35 35 36 37 38 38
33 33 33 34 34 34 34 34 34 34 34 35 36 36 36 36 36 35 35 35 34 35 36 36 37 38 39 40 40 40 41 42 42 42 42 42 42 42 41 41 42 43 43 42 42 42 42 41 41 41 40 39 36 34 32 31 30 31 31 31 31 32 34 35 35 35 36 38 39
33 33 33 33 33 33 33 34 34 34 34 34 35 36 36 36 36 36 36 35 35 35 36 37 38 39 40 40 40 40 41 43 43 42 42 43 43 43 43 41 41 42 42 42 42 42 42 42 41 41 41 39 37 35 32 31 30 30 31 31 32 32 32 33 33 33 33 35 37
32 32 32 32 31 32 32 33 34 34 34 34 35 35 36 36 35 35 35 35 36 36 36 37 39 40 41 41 39 39 40 42 43 44 43 43 42 42 42 41 40 41 41 42 42 42 42 41 41 41 40 38 36 34 31 29 29 29 30 31 31 29 26 25 26 27 28 30 32
Wind_Direction
292 295 297 299 301 301 301 300 300 300 301 302 304 306 307 309 310 311 312 312 311 310 308 307 307 308 310 312 313 313 313 313 313 313 312 310 308 307 305 305 305 306 306 307 308 309 310 313 316 319 320 320 318 316 313 310 307 304 299 294 291 289 288 287 287 287 288 287 286
289 291 293 295 296 296 296 295 295 295 296 297 299 301 302 304 305 307 307 308 307 306 305 305 305 307 308 310 311 311 311 312 312 312 312 310 307 305 303 302 303 304 305 307 308 309 310 313 315 316 316 316 315 313 311 309 307 303 299 294 291 288 286 284 283 283 284 283 283
287 289 291 293 294 294 293 292 292 292 293 294 296 297 298 300 301 303 304 304 304 304 303 302 303 305 306 307 308 309 309 310 311 311 311 309 306 303 301 300 301 303 305 306 307 308 310 312 313 313 313 312 311 310 308 307 305 302 298 294 291 288 285 282 280 280 279 279 279
287 289 290 292 292 293 292 292 292 292 292 293 294 295 296 297 298 300 301 301 301 301 300 300 302 303 304 305 306 306 307 308 308 309 309 308 305 302 300 300 301 302 304 305 306 307 308 309 310 310 310 309 307 306 305 304 303 300 297 293 290 287 284 281 279 277 275 274 274
288 289 291 292 292 293 293 292 292 292 293 294 294 295 295 296 297 298 299 299 299 299 299 300 301 301 302 303 303 304 304 305 305 306 307 306 304 302 300 300 301 302 303 304 304 305 306 307 307 307 306 305 304 302 301 301 300 298 296 293 289 285 282 280 277 274 272 270 270
292 293 293 294 294 294 294 293 293 293 293 294 294 294 295 296 297 297 298 298 298 299 300 300 300 301 301 302 302 302 302 302 303 303 304 304 303 302 301 300 301 301 302 302 302 303 303 304 304 303 302 301 300 298 297 298 297 296 294 292 289 285 282 278 275 272 269 267 266
299 299 299 298 298 297 296 295 294 294 294 293 293 293 293 295 296 298 299 300 300 300 300 300 300 300 300 300 300 300 300 300 300 300 301 301 301 301 301 301 301 300 300 300 300 301 301 300 300 299 299 298 296 295 295 295 293 293 292 291 289 286 282 277 273 269 266 264 263
308 307 306 305 304 302 301 299 298 297 296 294 293 292 293 294 296 298 300 301 301 301 301 301 301 300 300 299 299 298 298 298 298 298 299 299 299 299 299 299 299 299 299 299 299 298 298 296 295 294 294 294 292 292 292 291 290 289 289 289 288 286 282 277 272 267 263 261 260
316 315 314 313 311 310 309 307 306 304 302 300 298 297 296 297 298 300 301 302 303 303 302 301 301 301 300 299 298 297 296 296 296 297 297 297 297 297 297 297 297 297 297 297 296 296 295 293 291 290 289 289 288 288 288 288 287 286 286 286 286 284 281 277 273 268 263 260 258
321 320 319 318 317 317 316 314 313 311 309 307 306 304 303 302 302 302 302 302 302 302 301 300 300 300 299 298 297 296 295 295 294 294 294 294 294 293 294 294 294 294 295 295 294 293 292 290 288 287 286 285 285 285 285 285 285 284 283 283 284 283 281 278 274 270 265 260 258
322 321 320 319 317 316 315 314 312 311 309 308 306 305 303 302 301 300 299 299 298 297 297 297 297 297 296 296 295 294 293 293 292 292 292 291 291 291 291 291 291 292 292 292 292 292 290 288 286 285 284 283 283 283 282 282 281 281 281 281 281 282 281 279 275 272 267 263 260
321 319 318 316 314 312 311 309 307 305 303 301 299 298 297 296 295 295 295 294 293 293 293 293 294 294 293 293 292 292 291 291 291 290 289 289 289 289 289 289 290 290 291 291 290 289 288 286 284 282 281 281 281 280 279 278 278 279 279 279 279 279 279 277 275 272 269 265 262
320 318 316 314 312 310 308 305 303 300 298 296 294 292 291 291 291 292 292 292 291 291 291 291 292 291 291 290 290 290 289 289 289 288 288 288 288 288 288 288 288 289 289 289 288 287 285 284 282 282 281 280 280 278 276 276 276 276 276 276 276 276 276 275 274 272 270 267 263
320 318 317 315 313 311 309 306 304 302 299 297 295 294 293 293 293 293 293 292 292 291 292 292 291 290 289 289 288 288 288 287 287 287 286 286 287 287 287 287 287 287 287 286 286 285 283 282 281 281 280 280 279 278 276 275 274 274 273 273 274 274 274 274 273 272 269 267 263
320 319 318 317 316 315 313 311 309 307 306 304 302 301 300 299 298 297 296 294 294 294 293 292 291 290 289 288 287 286 286 286 285 285 285 285 285 285 286 286 286 286 285 284 284 283 281 281 281 280 280 280 279 278 277 276 274 273 272 271 271 272 272 272 271 270 268 266 264
320 319 319 319 319 318 317 315 314 312 310 308 307 305 304 302 301 299 297 296 295 294 293 291 290 289 288 287 286 285 285 284 284 283 283 283 283 284 284 284 284 284 284 283 282 281 280 280 280 280 280 279 279 278 277 276 274 273 272 271 271 271 271 270 269 268 266 264 263
319 319 319 319 318 317 316 314 313 311 309 308 306 305 303 302 300 299 297 296 294 293 292 290 289 288 287 286 285 284 283 283 282 282 282 282 282 282 282 283 283 283 282 282 281 280 280 280 280 280 279 279 278 277 276 275 274 273 272 272 271 271 271 270 268 267 265 263 261
318 317 317 317 316 315 313 312 310 309 307 306 305 303 302 301 299 298 297 295 294 293 291 290 289 288 286 285 284 283 282 282 281 281 281 281 281 281 281 281 281 281 280 280 280 279 279 279 279 279 278 277 276 275 274 273 273 272 272 272 272 272 271 270 269 267 264 263 261
316 316 315 315 314 313 312 310 309 308 306 305 304 302 301 300 299 298 297 296 295 293 292 291 290 288 287 285 284 283 282 282 281 281 281 281 280 280 280 279 279 279 279 279 278 278 278 278 278 277 277 276 275 274 273 272 272 271 271 272 272 272 272 271 270 268 265 263 261
315 314 314 313 312 311 310 309 308 307 306 305 303 302 301 300 299 299 297 296 296 295 294 292 291 290 288 287 286 285 283 283 282 281 281 281 280 279 279 279 278 278 278 277 277 276 276 276 276 275 275 274 274 273 273 272 272 272 271 272 272 272 272 271 271 269 267 265 263
314 313 312 312 311 310 309 308 307 306 305 304 303 302 301 301 300 299 298 298 297 296 295 294 293 291 290 289 288 286 285 284 283 282 281 280 279 279 278 278 278 277 276 276 275 274 274 274 273 273 273 272 272 272 271 272 272 271 271 271 271 271 270 270 269 268 267 265 264
312 312 311 310 309 308 308 307 306 306 305 304 303 302 302 301 300 300 299 299 298 297 296 295 294 293 291 290 289 288 287 285 284 282 281 280 279 278 277 277 277 276 275 274 274 273 273 272 271 271 270 270 270 269 269 270 270 270 270 270 270 270 270 269 268 267 266 264 264
311 311 310 309 309 308 307 307 306 305 304 304 303 302 302 301 300 300 299 299 298 297 296 295 294 293 292 291 290 288 287 286 284 282 281 279 278 277 277 276 276 275 274 273 272 272 271 270 270 269 269 268 267 267 267 267 268 268 269 270 270 271 270 270 268 267 265 263 262
311 311 310 309 309 308 307 306 306 305 304 303 303 302 302 301 300 300 299 298 297 296 295 294 293 292 292 291 290 288 287 285 284 282 281 279 278 277 277 276 275 274 273 272 271 269 268 268 268 268 267 266 266 266 266 266 266 266 267 269 270 270 271 270 269 268 266 264 261
312 311 311 310 309 308 307 306 306 305 304 303 303 302 301 300 300 299 298 297 296 295 295 294 293 292 291 290 289 287 286 284 282 281 280 279 278 277 276 275 274 273 271 270 269 268 266 265 264 264 265 265 265 265 265 264 264 264 266 267 268 269 270 270 270 269 267 265 262
312 312 311 310 309 308 307 306 305 305 304 303 302 301 301 300 299 298 298 296 296 295 294 294 293 292 291 290 288 286 285 283 281 280 279 278 278 276 275 274 272 271 270 268 268 267 266 265 263 262 262 263 263 264 264 264 264 263 264 265 266 266 267 268 269 268 267 265 263
313 313 312 311 310 308 307 306 305 304 303 303 302 301 300 300 299 298 297 296 295 295 294 294 293 292 291 289 287 285 284 282 281 280 279 277 277 275 274 273 271 270 268 268 267 266 266 265 264 263 261 260 260 261 262 264 264 264 264 264 264 265 265 266 267 268 268 267 265
314 313 312 311 310 308 307 306 305 304 303 302 302 301 300 300 299 298 297 296 296 296 295 294 293 292 290 288 286 285 283 283 282 280 279 278 276 275 273 272 271 269 268 268 267 266 266 265 264 263 262 261 260 260 262 263 263 264 264 263 263 264 264 264 264 266 267 267 266
314 313 312 311 309 308 307 306 305 304 303 302 302 301 300 300 299 298 297 297 296 296 295 294 293 291 289 287 286 285 284 283 282 281 279 278 276 275 273 272 271 270 269 268 268 267 266 266 265 264 263 262 261 261 262 262 263 263 263 263 262 261 261 262 262 263 263 264 265
314 313 312 311 309 307 306 305 304 304 303 302 302 301 300 299 299 298 297 296 296 294 293 293 291 290 288 286 285 285 284 282 281 280 278 277 275 274 273 272 271 270 269 269 268 267 267 266 265 265 264 263 262 262 261 262 262 262 261 260 260 259 260 260 260 260 260 261 262
314 313 312 310 309 307 306 305 304 304 303 302 302 301 300 299 298 297 296 296 295 294 293 292 290 288 287 285 285 283 282 281 280 279 277 276 274 274 273 272 271 270 269 268 268 267 266 266 265 265 264 264 262 261 260 260 259 259 259 258 258 258 258 258 258 257 257 258 259
314 313 312 310 308 307 306 305 304 304 303 302 301 300 299 298 297 296 296 295 294 293 292 291 290 288 286 285 284 282 281 280 278 277 276 275 274 273 273 272 271 270 269 268 267 267 266 265 265 265 264 264 262 261 260 258 258 257 257 256 256 257 257 256 256 256 255 255 256
314 313 311 309 308 306 306 305 305 304 303 302 301 300 299 298 297 297 296 295 294 293 292 290 289 287 286 285 283 282 281 279 277 276 275 274 273 272 272 271 270 269 268 268 267 266 265 264 264 263 263 263 261 260 259 257 256 256 255 255 255 255 255 254 254 254 254 254 255
314 313 311 309 308 307 306 305 305 304 303 302 301 300 299 299 298 297 297 296 295 293 291 289 287 286 285 283 282 281 280 279 277 275 274 274 273 271 270 270 269 268 267 267 266 265 264 263 263 262 261 261 260 258 257 256 255 254 253 253 254 254 254 253 252 252 252 252 253
314 312 311 309 308 307 306 306 305 305 304 302 302 301 300 299 298 297 297 296 295 293 291 289 287 285 284 282 280 279 278 277 276 275 274 272 271 270 269 268 267 267 267 266 265 264 263 263 262 261 260 260 259 258 256 255 254 253 252 252 252 252 252 252 251 250 250 250 251
313 312 311 309 308 307 307 306 306 305 304 303 302 301 301 300 299 298 297 297 295 294 292 289 288 286 284 283 281 279 277 277 276 275 274 272 271 269 268 267 267 267 267 265 265 264 263 262 261 261 260 259 258 257 255 254 253 252 252 251 251 251 251 252 250 249 248 248 249
313 312 311 309 308 307 307 306 306 305 304 303 302 302 301 300 300 299 298 297 296 294 292 290 289 286 284 283 282 280 278 277 276 275 274 272 271 269 268 267 267 267 266 266 264 263 262 262 260 259 258 257 256 255 254 253 253 252 251 251 250 250 250 250 249 247 247 246 246
313 312 311 309 308 307 307 306 305 304 303 303 302 302 301 301 300 299 298 297 295 294 293 291 289 287 285 284 283 281 279 277 276 274 273 272 270 268 267 266 267 267 266 265 264 263 262 260 259 258 257 256 255 254 253 252 252 251 251 250 250 250 249 248 247 246 245 243 242
313 312 311 309 308 307 306 306 305 304 303 303 303 302 301 300 299 298 297 297 295 294 292 291 289 287 286 285 284 282 280 279 276 274 272 271 270 268 267 266 266 266 266 265 264 263 262 260 259 258 256 254 253 252 252 251 251 250 250 251 251 251 251 249 247 244 241 238 233
312 311 310 309 307 306 306 305 305 304 303 303 302 301 301 300 299 298 298 296 295 294 292 291 289 288 287 286 285 283 281 280 278 275 273 271 270 269 268 266 266 266 265 265 264 263 262 260 259 257 255 254 252 251 250 249 249 250 250 251 251 251 249 246 241 235 230 224 218
312 311 310 308 307 306 306 305 304 304 303 302 301 300 300 300 299 298 298 297 296 295 293 291 290 289 289 288 286 284 282 281 279 277 275 272 271 270 269 266 265 265 265 264 263 262 261 259 258 256 255 252 250 249 247 247 248 249 249 250 248 244 237 229 221 213 206 200 195
Height
783 783 782 781 780 780 779 778 777 776 775 774 773 772 771 770 769 769 768 768 767 766 765 765 764 763 763 762 762 761 760 760 760 759 759 758 758 757 756 756 755 755 754 753 753 752 752 752 752 751 751 750 750 749 748 748 747 746 746 745 745 745 744 744 743 743 743 744 744
781 781 780 780 779 778 777 776 775 775 774 773 772 770 770 769 768 767 766 765 765 765 764 763 762 761 761 760 760 760 759 758 758 757 757 756 756 756 755 755 754 753 753 752 752 751 751 751 751 751 750 750 749 748 747 747 746 745 745 744 743 743 743 742 742 742 742 742 742
780 779 779 778 777 776 775 775 774 773 772 771 770 769 768 767 766 765 765 764 763 763 762 761 760 760 759 758 758 757 757 756 756 755 755 755 754 754 754 753 753 752 751 751 751 750 750 750 750 750 750 749 749 748 747 746 745 745 744 743 742 742 741 740 740 740 740 740 740
778 777 777 776 775 775 774 773 772 771 770 769 768 767 767 766 765 764 763 762 761 760 760 759 758 757 757 756 755 755 755 754 754 753 753 752 752 752 752 751 751 750 750 750 749 749 749 749 748 748 748 748 748 747 746 745 745 744 743 742 741 740 740 739 739 739 739 739 739
776 776 775 775 774 773 772 772 770 770 769 768 767 766 765 764 763 762 761 760 759 759 758 757 756 755 755 754 753 753 752 752 752 751 750 750 750 750 750 750 749 749 749 748 748 747 747 747 747 747 747 746 746 745 745 745 744 743 742 741 740 739 739 738 737 737 737 737 737
775 775 774 773 772 772 771 770 769 768 767 766 765 764 763 762 761 760 759 758 757 757 756 755 755 754 753 752 751 750 750 750 749 749 748 748 748 747 747 747 747 747 746 746 746 745 745 745 745 745 745 745 744 744 743 743 743 742 741 740 739 738 737 737 736 736 736 735 735
774 773 773 772 771 770 769 769 768 767 766 765 764 762 761 760 759 758 757 756 755 755 754 754 753 752 751 750 749 748 747 747 746 746 746 745 745 745 745 745 744 744 744 744 744 744 743 743 743 742 742 742 742 741 741 742 741 740 740 739 738 737 736 735 735 735 734 734 733
774 773 772 771 770 769 768 767 766 765 765 763 762 761 760 759 758 756 755 755 754 753 752 752 751 750 749 748 747 746 745 744 744 743 743 743 742 742 742 742 741 741 741 741 741 741 741 741 741 740 740 740 740 739 739 740 739 739 738 737 736 736 735 734 734 733 732 732 731
773 772 771 770 769 768 767 766 765 764 763 762 761 760 759 758 757 755 754 753 752 751 751 750 749 748 747 746 745 744 743 742 741 740 740 740 740 739 739 739 739 738 738 738 739 739 739 738 738 738 738 738 737 737 736 737 737 736 736 735 734 734 733 733 732 731 730 730 730
772 771 770 769 768 767 766 765 764 763 761 760 760 760 759 758 756 755 753 751 750 750 749 748 747 746 745 744 743 742 741 740 739 738 738 737 737 736 736 736 735 735 735 735 735 736 735 735 735 734 734 734 734 734 734 734 734 734 733 733 732 731 731 730 730 730 729 728 727
770 770 769 767 766 765 764 763 762 761 760 759 758 758 758 757 755 754 752 750 749 748 747 746 745 745 743 742 741 740 739 738 737 736 735 735 734 734 733 733 733 732 732 732 732 733 733 732 732 731 731 731 731 731 731 731 731 731 731 730 730 729 729 728 728 727 727 726 725
769 768 767 766 765 764 763 761 760 759 758 757 756 756 756 755 754 752 750 749 747 746 745 744 743 742 741 740 739 738 737 736 735 734 733 732 731 731 730 730 730 729 729 729 729 729 729 729 729 728 728 728 728 728 728 728 728 728 728 728 727 727 726 725 725 725 725 724 723
768 767 765 765 763 762 761 760 759 757 756 755 754 753 753 752 751 750 749 747 745 744 743 742 741 740 739 738 737 736 735 734 733 731 730 729 729 728 727 727 726 726 726 725 726 726 726 725 725 725 724 724 725 725 725 725 725 725 725 725 725 724 724 723 723 722 722 721 721
766 765 764 763 762 761 760 759 757 756 755 753 752 751 750 750 749 748 747 745 744 742 741 740 739 738 737 736 735 734 732 731 730 729 728 727 726 725 725 724 723 723 723 722 722 723 723 722 722 721 721 721 721 721 721 722 722 722 722 722 721 721 720 720 720 720 720 719 718
765 764 763 762 761 760 759 758 756 755 754 753 751 750 749 748 747 746 745 743 742 740 739 738 736 735 735 734 732 731 730 729 728 726 725 724 723 722 722 721 720 720 720 719 719 719 719 719 719 718 718 718 717 717 718 718 718 718 718 718 718 718 718 718 718 717 717 716 715
764 763 762 761 760 759 758 756 755 754 753 751 750 749 748 746 745 744 743 741 740 738 737 735 734 733 732 730 730 729 727 726 725 724 723 721 720 720 719 718 717 717 716 716 716 716 715 715 715 715 715 714 714 714 714 714 714 715 715 715 715 715 714 714 715 714 714 714 713
763 762 761 760 759 757 756 755 754 753 751 750 748 747 746 744 743 742 740 739 737 736 734 733 731 730 729 727 727 726 725 723 722 721 720 719 718 717 716 715 715 714 714 713 713 712 712 712 712 712 712 711 711 710 710 710 710 710 710 710 710 711 711 711 711 711 711 710 710
761 760 759 758 757 756 755 753 752 751 749 748 746 745 744 742 741 739 738 736 735 733 731 730 729 727 726 725 723 723 722 720 719 718 717 716 715 714 713 712 711 711 711 710 710 709 709 709 709 709 708 708 707 707 707 707 707 706 706 706 706 707 707 707 707 707 707 707 706
760 759 758 757 755 754 753 751 750 749 747 746 744 743 741 740 738 737 735 734 732 731 729 727 726 725 723 722 720 720 719 717 716 715 714 713 712 711 710 709 708 708 708 707 707 706 706 705 705 705 705 704 704 704 703 703 703 703 703 703 703 703 703 703 703 703 703 703 702
758 757 756 755 754 752 751 750 748 747 745 744 742 740 739 737 736 734 732 731 729 728 726 725 723 721 720 719 718 716 715 715 713 712 710 710 709 708 707 706 705 705 704 704 703 703 702 702 702 701 701 701 700 700 700 700 700 699 699 699 699 699 699 699 699 699 699 699 699
757 755 754 753 752 750 749 747 746 744 743 741 740 738 736 735 733 731 730 728 727 725 724 722 720 719 718 716 715 714 712 711 710 709 707 706 705 704 703 703 702 701 701 700 700 700 699 699 698 698 698 697 697 697 696 696 696 696 696 696 695 695 695 695 695 695 695 695 695
755 754 752 751 750 748 747 745 744 742 740 739 737 735 734 732 730 729 727 726 724 723 721 720 718 716 715 714 712 711 710 709 707 706 705 703 702 701 700 700 699 698 697 697 696 696 695 695 695 695 694 694 693 693 693 693 692 692 692 692 692 691 691 691 691 691 691 690 690
753 752 750 749 748 746 745 743 741 740 738 736 735 733 731 730 728 726 725 723 721 720 718 717 715 714 712 711 710 708 707 705 704 702 701 700 699 698 697 697 696 695 694 693 693 692 692 691 691 691 691 690 690 690 689 689 689 689 688 688 688 688 687 687 687 687 687 686 686
751 750 748 747 745 744 742 740 739 737 736 734 732 731 729 727 725 724 722 720 719 717 715 714 712 711 710 708 707 705 704 702 700 699 697 696 695 695 694 693 692 691 690 690 689 688 688 688 687 687 687 687 686 686 686 686 686 685 685 685 684 684 684 684 683 683 683 683 682
749 748 746 745 743 742 740 739 737 735 734 732 730 729 727 725 723 721 720 718 716 714 712 711 709 708 706 705 703 702 700 699 697 695 694 693 691 691 690 689 688 687 686 685 685 684 684 684 684 684 684 683 683 683 683 682 682 682 682 681 681 681 680 680 679 679 679 679 679
747 745 744 743 741 740 738 736 735 733 731 730 728 726 724 722 720 719 717 715 713 711 710 708 706 705 703 701 700 698 696 695 694 692 690 689 688 687 686 685 685 683 682 681 680 680 680 680 680 680 680 680 680 680 679 679 679 679 678 678 678 677 677 676 675 675 675 675 675
745 744 742 740 739 737 736 734 733 731 729 727 726 724 722 720 718 716 714 712 710 708 707 705 703 701 700 698 696 694 692 691 690 689 687 686 685 683 682 681 680 679 678 677 676 676 676 676 676 677 677 677 677 676 676 675 675 675 675 675 674 674 673 672 671 671 671 671 670
743 742 740 739 737 735 734 732 730 729 727 725 723 721 719 717 715 714 711 710 708 706 704 702 700 699 697 695 693 691 689 688 687 685 684 682 681 680 678 677 676 675 674 673 673 673 672 672 672 673 673 673 673 673 673 672 672 671 671 671 670 670 670 669 668 668 668 667 667
742 740 738 737 735 733 731 730 728 726 725 723 721 719 717 715 713 711 709 707 705 703 701 700 698 696 694 692 690 688 686 685 684 682 681 679 678 676 675 673 672 671 670 670 670 669 669 669 669 669 669 670 670 670 669 669 668 668 667 667 666 666 665 665 665 665 664 664 664
740 738 737 735 733 731 729 728 726 724 722 720 718 716 714 712 710 708 706 705 703 701 699 697 695 693 691 689 687 685 684 681 680 679 678 676 674 672 670 670 669 667 666 666 666 665 665 665 665 665 665 666 667 667 666 665 665 664 663 663 662 662 661 661 661 661 661 661 660
738 737 735 733 731 729 727 725 724 722 720 718 716 714 712 710 708 705 704 702 700 698 696 695 693 690 688 686 684 682 680 678 677 675 674 672 670 668 666 665 665 663 662 662 662 661 661 661 661 661 661 662 663 663 663 662 661 660 659 658 658 657 657 658 658 657 657 657 657
737 735 733 731 729 727 725 723 721 720 718 716 714 711 710 707 705 703 701 700 697 695 693 691 689 687 684 682 680 679 676 675 673 671 670 668 666 664 663 661 660 659 658 658 657 657 657 657 657 657 657 658 659 659 658 658 657 656 655 654 653 653 653 654 654 654 653 654 654
735 733 731 729 727 725 723 721 719 717 715 713 711 709 707 705 702 700 698 696 695 693 690 688 685 683 681 679 676 675 672 670 669 667 665 664 662 660 659 657 655 654 653 653 653 653 653 653 653 653 653 654 655 654 654 653 652 651 650 649 649 649 649 650 650 650 650 650 650
733 731 729 727 725 723 720 719 717 715 713 710 708 706 704 702 700 697 695 693 692 690 687 685 682 680 677 675 673 671 668 666 664 662 661 659 658 656 654 652 650 649 649 649 649 648 648 648 648 649 649 650 650 650 649 648 647 646 645 644 644 644 645 645 645 645 645 645 646
732 730 727 725 723 721 719 716 714 712 710 708 705 703 701 700 698 695 693 690 689 686 684 681 679 676 674 671 669 667 665 662 660 658 656 655 654 652 650 647 645 644 644 645 644 644 644 644 644 644 645 645 645 645 644 643 642 641 640 640 640 640 640 640 640 640 641 641 642
730 728 726 723 721 719 716 715 712 710 708 705 703 701 699 697 695 692 690 688 686 683 680 677 675 673 670 668 665 663 661 658 655 653 651 650 649 647 644 642 640 639 639 640 640 639 639 639 639 640 640 641 640 640 639 638 637 636 636 636 635 635 635 636 636 636 636 637 638
729 727 724 722 719 717 715 713 710 708 706 703 701 699 697 694 692 689 687 686 683 680 677 674 672 669 666 664 661 659 656 654 652 649 647 645 644 642 640 637 635 634 634 634 635 634 634 634 635 635 636 636 636 635 635 634 633 632 631 631 630 630 630 631 631 631 632 632 633
727 725 723 720 718 715 713 711 709 706 704 701 699 697 695 692 689 687 685 683 681 677 674 671 668 665 662 660 657 654 651 649 647 645 642 640 638 636 635 632 630 628 628 629 629 629 629 629 630 630 631 631 631 631 630 630 629 628 627 626 626 625 626 626 626 626 626 627 628
725 723 721 719 716 714 711 709 707 705 702 700 697 694 692 690 687 684 682 680 678 675 671 668 665 661 658 656 653 650 646 643 642 640 637 634 632 631 630 627 625 623 623 623 624 624 624 624 624 625 626 626 626 626 626 625 624 623 622 622 621 621 621 621 621 621 621 622 623
723 721 720 717 715 713 710 708 705 703 701 698 695 692 690 687 685 682 680 677 675 672 669 665 661 658 655 652 649 645 641 638 636 634 632 629 627 625 624 622 620 618 617 618 618 618 618 618 619 619 620 621 621 621 621 621 620 619 618 617 617 616 616 616 616 616 616 617 619
722 720 718 716 714 711 709 706 703 701 699 696 694 690 687 685 682 679 677 674 672 669 666 662 658 654 651 648 645 641 637 633 630 627 626 624 621 620 619 617 615 614 612 612 612 612 612 613 613 614 615 616 616 616 616 616 615 614 613 612 612 612 612 611 611 612 613 614 616